SCP
0 0 0 0 0 0 0 0 0 0 0 0 0 0 0 0 0 0 0 0 0 0 0 0 0 0 0 0 0 0 0 0 0 0 0 0 0 0 0 0 0 0 0 -0
-0 -0 0 0 0 0 0 0 0 0 0 0 0 0 0 0 0 0 0 0 0 0 0 0 0 0 0 0 0 0 0 0 0 0 0 0 0 0 0 0 0 0 0 -0
-0 0 0 0 0 0 0 0 0 0 0 0 0 0 0 0 0 0 0 0 0 0 0 0 0 0 0 0 0 0 0 0 0 0 0 0 0 0 0 0 0 0 0 0
-0 0 0 0 0 0 0 0 0 0 0 0 0 0 0 0 0 0 0 0 0 0 0 0 0 0 0 0 0 0 0 0 0 0 0 0 0 0 0 0 0 0 0 0
0 0 0 0 0 0 0 0 0 0 0 0 0 0 0 0 0 0 0 0 0 0 0 0 0 0 0 0 0 0 0 0 0 0 0 0 0 0 0 -0 0 0 0 0
0 0 0 0 0 0 0 0 0 0 0 0 0 0 0 0 0 0 0 0 0 0 0 0 0 0 0 0 0 0 0 0 0 0 0 0 0 0 0 0 0 0 0 0
0 0 0 0 0 0 0 0 0 0 0 0 0 0 0 0 0 0 0 0 0 0 0 0 0 0 0 0 0 0 0 0 0 0 0 0 0 0 0 0 0 0 0 0
0 0 0 0 0 0 0 0 0 0 0 0 0 0 0 0 0 0 0 0 0 0 0 0 0 0 0 0 0 0 0 0 0 0 0 0 0 0 0 0 0 0 0 0
0 0 0 0 0 0 0 0 0 0 0 0 0 0 0 0 0 0 0 0 0 0 0 0 0 0 0 0 0 0 0 0 0 0 0 0 0 0 0 0 0 0 0 0
0 0 0 0 0 0 0 0 0 0 0 0 0 0 0 0 0 0 0 0 0 0 0 0 0 0 0 0 0 0 0 0 0 0 0 0 0 0 0 0 0 0 0 0
0 0 0 0 0 0 0 0 0 0 0 0 0 0 0 0 0 0 0 0 0 0 0 0 0 0 0 0 0 0 0 0 0 0 0 0 0 0 0 0 0 0 0 -0
-0 0 0 0 0 0 0 0 0 0 0 0 0 0 0 0 0 0 0 0 0 0 0 0 0 0 0 0 0 0 0 0 0 0 0 0 0 0 0 0 0 0 0 -0
0 -0 -0 0 0 0 0 0 0 0 0 0 0 0 0 0 0 0 0 0 0 0 0 0 0 0 0 0 0 0 0 0 0 0 0 0 0 0 0 0 0 0 -0 -0
0 0 0 0 0 0 0 0 0 0 0 0 0 0 0 0 0 0 0 0 0 0 0 0 0 0 0 0 0 0 0 0 0 0 0 0 0 0 0 0 0 0 0 0
0 -0 0 -0 0 0 0 0 0 0 0 0 0 0 0 0 0 0 0 0 0 0 0 0 0 0 0 0 0 0 0 0 0 0 0 0 0 0 0 0 0 0 0 0
-0 -0 -0 -0 0 0 0 0 0 0 0 0 0 0 0 0 0 0 0 0 0 0 0 0 0 0 0 0 0 0 0 0 0 0 0 0 0 0 0 0 0 0 0 0
-0 -0 0 0 0 0 0 0 0 0 0 0 0 0 0 0 0 0 0 0 0 0 0 0 0 0 0 0 0 0 0 0 0 0 0 0 0 0 0 0 0 0 -0 -0
-0 -0 -0 -0 -0 0 0 0 0 0 0 0 0 0 0 0 0 0 0 0 0 0 0 0 0 0 0 0 0 0 0 0 0 0 0 0 0 0 0 0 0 0 0 0
-0 0 0 0 0 0 0 0 0 0 0 0 0 0 0 0 0 0 0 0 0 0 0 0 0 0 0 0 0 0 0 0 0 0 0 0 0 0 0 0 0 0 0 0
0 0 0 0 0 0 0 0 0 0 0 0 0 0 0 0 0 0 0 0 0 0 0 0 0 0 0 0 0 0 0 0 0 0 0 0 0 0 0 0 0 0 0 0
0 -0 -0 0 0 0 0 0 0 -0 -0 0 0 0 0 0 0 0 0 0 0 0 0 0 0 0 0 0 0 0 0 0 0 0 0 0 0 0 0 0 0 0 0 0
-0 -0 0 0 0 0 -0 0 0 0 0 0 0 0 0 0 -0 0 0 0 0 0 0 0 0 0 0 0 0 0 0 0 0 0 0 0 0 0 0 0 0 0 0 0
0 0 0 0 0 0 0 0 0 0 0 0 0 0 0 0 0 0 0 -0 -0 0 0 -0 0 0 0 0 0 0 0 0 0 0 0 0 0 0 0 0 0 0 0 0
0 0 0 0 0 0 0 0 0 0 0 0 0 0 0 0 0 0 0 0 0 0 -0 -0 0 0 0 0 0 0 0 0 0 0 0 0 0 0 0 0 0 0 0 0
0 0 0 0 0 0 0 0 0 0 0 0 0 0 0 0 0 0 0 0 0 0 0 0 0 0 0 0 0 0 0 0 0 0 0 0 0 0 0 0 0 0 0 0
0 0 0 0 0 0 0 0 0 0 0 0 0 0 0 0 0 0 0 0 0 0 0 0 0 0 0 0 0 0 0 0 0 0 0 0 0 0 0 0 0 0 0 0
0 0 0 0 0 0 0 0 0 0 0 0 0 0 0 0 0 0 0 0 0 0 0 0 0 0 0 0 0 0 0 0 0 0 0 0 0 0 0 0 0 0 0 0
Wind_Speed_500mb
63 61 68 67 81 71 69 49 13 47 70 25 6 25 27 17 17 5 9 9 10 13 21 34 39 24 20 36 35 34 23 4 6 20 1 13 26 18 17 7 8 7 4 23
64 58 63 57 72 74 61 35 5 57 97 27 13 15 17 12 17 12 13 7 7 7 20 20 12 24 15 32 36 32 22 9 6 4 7 6 15 28 29 26 3 18 6 21
64 63 69 73 68 66 54 18 7 11 40 11 16 32 26 16 8 9 9 11 9 17 17 6 26 16 9 36 28 37 41 8 8 11 4 6 16 24 33 26 11 32 32 57
57 58 70 63 67 73 71 24 7 13 7 18 20 28 38 33 15 4 14 4 11 16 12 7 10 10 8 3 24 14 11 11 14 12 8 7 3 19 27 27 41 20 58 39
62 65 56 66 64 74 65 22 8 10 7 43 37 16 28 41 7 12 16 18 22 9 16 16 24 25 11 11 8 12 5 5 5 7 8 18 13 22 22 44 42 37 50 58
54 62 62 66 68 73 21 9 9 15 23 22 26 14 42 36 22 10 17 25 16 12 12 30 32 26 33 20 17 11 15 11 5 4 5 5 12 38 44 33 37 41 37 69
52 57 51 67 70 72 43 36 12 6 17 19 16 19 30 43 30 17 6 24 11 19 69 62 42 38 28 22 12 10 12 12 6 5 4 4 10 4 19 36 41 41 46 58
54 58 63 60 70 61 45 32 15 6 13 19 16 20 16 27 30 11 9 4 32 75 22 10 12 10 12 10 10 7 6 8 6 8 8 13 18 10 13 16 25 34 44 52
47 51 64 67 71 45 39 33 18 7 11 6 37 31 40 23 10 7 9 30 66 14 7 8 10 9 11 7 11 9 4 6 8 6 10 15 11 11 8 10 13 11 22 34
48 52 68 65 63 48 44 33 31 15 15 7 33 22 38 27 13 11 13 19 9 4 5 6 6 6 6 10 17 12 6 2 14 8 7 15 15 15 6 5 6 12 28 29
38 58 62 81 61 51 48 37 24 17 16 15 17 29 28 21 26 14 26 14 2 5 8 7 6 7 13 7 8 12 17 14 8 5 4 20 15 5 13 4 13 28 30 27
61 57 71 63 63 49 37 31 29 21 24 23 33 39 33 33 33 42 20 9 12 14 8 2 7 5 6 10 10 3 6 13 11 20 14 11 7 3 6 9 16 25 42 50
31 40 62 60 55 50 43 32 42 41 43 27 21 30 33 31 38 61 24 12 15 15 9 9 5 7 6 9 9 6 9 12 6 6 11 18 18 10 2 11 20 26 33 43
24 29 53 47 40 33 32 44 44 32 27 10 8 22 24 23 38 35 32 35 25 24 15 6 6 6 9 6 3 7 8 16 11 9 5 11 13 11 11 24 27 29 33 39
23 24 53 49 34 41 54 58 49 38 12 10 14 33 28 26 24 29 28 29 32 18 7 4 4 7 7 1 1 10 13 12 11 9 4 2 6 6 28 32 33 38 44 50
44 50 49 46 39 35 40 12 21 25 45 14 6 12 26 33 37 41 42 37 23 11 10 5 3 4 6 7 7 4 23 18 15 7 13 20 30 32 30 28 34 38 44 45
53 44 44 49 43 19 7 12 25 40 22 11 7 5 6 21 23 19 23 21 14 9 9 5 5 2 5 5 9 8 16 14 15 20 20 15 16 12 31 43 44 44 40 41
37 38 40 38 36 40 40 35 30 18 17 14 8 5 5 14 8 8 8 9 7 8 7 6 5 3 1 10 3 12 19 16 16 20 20 25 36 41 38 40 43 47 46 44
33 33 36 33 18 15 21 36 35 25 10 13 8 5 4 8 10 9 8 6 4 3 3 4 4 3 11 6 8 13 10 9 11 18 25 28 30 33 38 42 45 47 49 45
15 9 6 9 7 10 9 9 4 12 21 17 7 3 4 8 5 6 3 8 2 3 5 1 3 7 7 13 12 10 9 12 17 23 21 23 35 39 43 45 45 44 47 49
4 9 8 14 11 8 8 11 15 16 9 15 9 12 5 9 6 4 7 3 2 4 7 6 5 7 4 9 15 20 22 24 26 28 28 31 38 44 47 45 40 40 39 40
10 16 15 7 7 8 13 2 6 10 4 3 6 7 9 7 6 6 4 6 4 4 6 5 7 6 11 7 3 8 11 13 16 22 24 26 30 33 37 41 39 35 33 32
10 6 6 11 11 15 10 3 5 3 5 9 10 4 6 6 11 11 7 8 6 3 3 8 8 5 14 10 9 12 14 16 18 20 22 25 27 27 29 30 29 33 31 25
5 7 9 7 9 2 6 6 8 10 14 24 20 11 6 6 7 1 8 6 5 3 2 13 5 14 16 14 13 12 12 14 16 18 19 19 20 20 23 25 21 21 25 21
7 6 2 4 4 6 8 16 12 16 24 19 18 13 6 6 8 5 6 8 8 12 10 6 8 12 15 16 15 13 10 10 11 13 14 14 15 14 13 17 16 11 16 16
6 11 12 8 5 4 5 10 15 24 26 17 8 7 8 1 8 6 12 11 12 8 7 9 12 16 16 14 13 11 9 7 8 8 10 11 11 11 11 11 10 7 5 4
7 5 15 7 8 13 17 19 20 34 18 5 6 9 12 5 6 4 9 10 7 11 15 19 15 14 13 12 11 10 9 6 3 7 6 7 7 6 9 6 4 10 6 5
Wind_Direction_500mb
187 196 207 195 190 189 189 188 182 190 186 191 182 191 145 127 145 160 143 121 112 150 144 182 194 213 207 189 148 188 173 149 216 202 12 200 211 188 205 232 202 226 208 264
193 200 191 197 188 188 192 175 148 176 182 189 170 129 125 109 153 171 170 118 98 124 151 174 185 184 208 184 174 176 163 214 210 153 304 331 210 212 214 222 301 233 245 266
194 197 200 196 190 191 191 134 147 213 186 148 130 148 150 129 117 83 76 110 88 107 158 343 183 159 180 183 173 183 164 147 211 200 163 136 213 207 220 216 226 252 244 263
192 192 197 186 188 185 188 205 158 174 150 156 138 149 160 140 137 120 147 92 153 139 140 129 175 127 108 55 199 174 166 175 192 201 168 102 333 224 219 221 237 232 257 259
199 194 192 184 183 191 197 159 140 151 106 145 142 141 165 156 101 138 174 165 165 147 154 186 176 160 137 177 204 156 165 176 156 208 255 212 224 234 251 231 239 250 261 274
192 186 188 187 190 180 186 161 179 160 150 149 153 166 163 176 141 25 146 137 124 118 165 141 158 163 167 160 157 150 159 164 138 228 194 152 278 237 232 242 242 243 248 254
185 189 182 172 185 183 186 191 125 84 148 147 161 151 158 155 174 126 114 143 103 128 115 107 102 78 80 85 47 139 134 141 142 168 65 247 243 52 217 216 233 228 245 259
194 193 188 177 178 176 190 131 126 60 139 161 107 131 100 98 107 82 101 106 149 138 119 76 56 354 23 337 18 66 136 126 137 158 196 302 294 195 166 176 246 233 244 254
168 177 185 180 189 156 171 189 175 94 121 200 150 143 155 144 116 68 79 120 143 132 83 80 141 170 185 269 356 6 55 92 123 162 175 223 238 295 181 112 275 4 309 261
164 172 170 173 177 173 179 161 159 155 105 91 160 161 168 147 123 103 118 148 141 124 97 93 138 207 184 165 159 163 137 187 198 192 231 283 249 254 228 146 245 30 20 10
174 171 176 172 177 176 184 177 162 153 94 60 166 154 157 150 154 146 157 112 355 51 75 126 192 124 208 134 182 173 167 161 186 150 192 266 230 20 202 68 341 335 342 341
154 158 157 159 172 171 170 162 151 130 114 109 118 144 165 171 167 144 151 131 136 165 99 101 125 143 170 166 204 222 212 183 181 187 210 213 159 175 187 349 332 331 327 326
147 152 164 183 186 190 199 175 152 150 117 90 108 101 129 151 161 165 147 156 144 142 128 152 159 156 133 163 215 179 237 182 202 118 211 224 218 218 211 345 341 333 327 323
155 163 164 173 175 188 199 177 153 131 110 103 56 115 110 118 147 163 175 164 153 156 155 107 141 142 176 200 186 193 196 146 177 266 284 264 248 233 296 321 323 318 321 328
154 133 162 162 163 155 165 160 152 149 126 126 132 79 74 97 157 170 166 163 175 163 121 106 180 128 131 171 343 231 192 184 187 222 100 199 137 259 311 317 321 317 319 318
102 121 133 142 146 142 144 92 159 174 120 106 84 68 76 100 113 127 142 147 130 115 108 138 177 188 163 176 228 224 193 201 203 177 248 264 279 299 294 315 321 321 323 321
92 105 120 126 134 91 70 113 135 150 150 116 100 75 61 89 99 87 85 95 99 105 121 112 140 161 196 240 232 180 198 222 242 258 282 287 276 270 301 309 310 314 318 314
101 104 109 105 108 98 96 113 132 149 177 118 113 111 72 38 65 81 81 84 96 67 85 116 167 160 73 252 111 183 203 236 255 258 266 269 282 292 297 299 305 306 311 313
102 104 110 107 98 78 81 89 84 75 105 111 75 97 133 39 65 75 70 87 97 101 127 214 179 219 228 218 149 187 201 206 220 261 281 284 281 289 296 300 303 304 307 310
53 71 89 79 69 89 57 45 46 43 37 54 81 75 70 34 37 57 70 33 111 136 256 138 176 250 223 201 196 195 233 268 283 293 291 284 283 289 292 296 301 304 305 306
352 37 62 90 67 41 49 52 42 348 42 30 68 58 102 53 88 145 41 168 357 66 270 145 274 273 217 215 239 254 266 274 279 282 286 290 293 299 301 299 300 301 300 302
103 103 96 60 37 58 76 1 336 43 164 29 96 83 85 73 61 97 8 114 53 244 325 48 276 253 172 177 248 282 285 285 286 291 294 291 290 294 296 299 302 300 299 301
81 75 66 15 344 41 90 139 326 52 213 155 148 79 79 74 51 61 60 75 207 109 85 230 236 226 205 237 273 282 290 297 300 300 298 299 301 299 296 298 300 301 300 302
55 40 25 79 333 0 173 173 162 135 139 128 112 91 97 73 63 185 89 242 69 49 309 235 237 219 217 246 256 262 272 284 293 301 304 303 303 305 304 305 306 307 305 307
71 46 72 36 130 73 97 110 111 118 143 129 105 70 57 0 82 37 81 28 255 208 230 233 202 221 242 243 249 255 264 279 292 304 310 315 320 325 331 319 314 318 316 312
74 81 95 131 69 321 179 160 139 142 143 120 89 110 66 322 125 85 216 136 230 253 225 225 249 234 225 233 245 258 268 282 302 317 328 331 338 340 4 359 337 14 350 326
78 41 113 118 87 150 161 166 173 156 155 153 126 100 195 98 56 271 192 209 222 222 269 283 272 256 245 242 243 253 263 274 296 320 340 347 2 0 34 30 55 77 89 109
Wind_Speed_850mb
63 61 68 67 81 71 69 49 13 47 70 25 6 25 27 17 17 5 9 9 10 13 21 34 39 24 20 36 35 34 23 4 6 20 1 13 26 18 17 7 8 7 4 23
64 58 63 57 72 74 61 35 5 57 97 27 13 15 17 12 17 12 13 7 7 7 20 20 12 24 15 32 36 32 22 9 6 4 7 6 15 28 29 26 3 18 6 21
64 63 69 73 68 66 54 18 7 11 40 11 16 32 26 16 8 9 9 11 9 17 17 6 26 16 9 36 28 37 41 8 8 11 4 6 16 24 33 26 11 32 32 57
57 58 70 63 67 73 71 24 7 13 7 18 20 28 38 33 15 4 14 4 11 16 12 7 10 10 8 3 24 14 11 11 14 12 8 7 3 19 27 27 41 20 58 39
62 65 56 66 64 74 65 22 8 10 7 43 37 16 28 41 7 12 16 18 22 9 16 16 24 25 11 11 8 12 5 5 5 7 8 18 13 22 22 44 42 37 50 58
54 62 62 66 68 73 21 9 9 15 23 22 26 14 42 36 22 10 17 25 16 12 12 30 32 26 33 20 17 11 15 11 5 4 5 5 12 38 44 33 37 41 37 69
52 57 51 67 70 72 43 36 12 6 17 19 16 19 30 43 30 17 6 24 11 19 69 62 42 38 28 22 12 10 12 12 6 5 4 4 10 4 19 36 41 41 46 58
54 58 63 60 70 61 45 32 15 6 13 19 16 20 16 27 30 11 9 4 32 75 22 10 12 10 12 10 10 7 6 8 6 8 8 13 18 10 13 16 25 34 44 52
47 51 64 67 71 45 39 33 18 7 11 6 37 31 40 23 10 7 9 30 66 14 7 8 10 9 11 7 11 9 4 6 8 6 10 15 11 11 8 10 13 11 22 34
48 52 68 65 63 48 44 33 31 15 15 7 33 22 38 27 13 11 13 19 9 4 5 6 6 6 6 10 17 12 6 2 14 8 7 15 15 15 6 5 6 12 28 29
38 58 62 81 61 51 48 37 24 17 16 15 17 29 28 21 26 14 26 14 2 5 8 7 6 7 13 7 8 12 17 14 8 5 4 20 15 5 13 4 13 28 30 27
61 57 71 63 63 49 37 31 29 21 24 23 33 39 33 33 33 42 20 9 12 14 8 2 7 5 6 10 10 3 6 13 11 20 14 11 7 3 6 9 16 25 42 50
31 40 62 60 55 50 43 32 42 41 43 27 21 30 33 31 38 61 24 12 15 15 9 9 5 7 6 9 9 6 9 12 6 6 11 18 18 10 2 11 20 26 33 43
24 29 53 47 40 33 32 44 44 32 27 10 8 22 24 23 38 35 32 35 25 24 15 6 6 6 9 6 3 7 8 16 11 9 5 11 13 11 11 24 27 29 33 39
23 24 53 49 34 41 54 58 49 38 12 10 14 33 28 26 24 29 28 29 32 18 7 4 4 7 7 1 1 10 13 12 11 9 4 2 6 6 28 32 33 38 44 50
44 50 49 46 39 35 40 12 21 25 45 14 6 12 26 33 37 41 42 37 23 11 10 5 3 4 6 7 7 4 23 18 15 7 13 20 30 32 30 28 34 38 44 45
53 44 44 49 43 19 7 12 25 40 22 11 7 5 6 21 23 19 23 21 14 9 9 5 5 2 5 5 9 8 16 14 15 20 20 15 16 12 31 43 44 44 40 41
37 38 40 38 36 40 40 35 30 18 17 14 8 5 5 14 8 8 8 9 7 8 7 6 5 3 1 10 3 12 19 16 16 20 20 25 36 41 38 40 43 47 46 44
33 33 36 33 18 15 21 36 35 25 10 13 8 5 4 8 10 9 8 6 4 3 3 4 4 3 11 6 8 13 10 9 11 18 25 28 30 33 38 42 45 47 49 45
15 9 6 9 7 10 9 9 4 12 21 17 7 3 4 8 5 6 3 8 2 3 5 1 3 7 7 13 12 10 9 12 17 23 21 23 35 39 43 45 45 44 47 49
4 9 8 14 11 8 8 11 15 16 9 15 9 12 5 9 6 4 7 3 2 4 7 6 5 7 4 9 15 20 22 24 26 28 28 31 38 44 47 45 40 40 39 40
10 16 15 7 7 8 13 2 6 10 4 3 6 7 9 7 6 6 4 6 4 4 6 5 7 6 11 7 3 8 11 13 16 22 24 26 30 33 37 41 39 35 33 32
10 6 6 11 11 15 10 3 5 3 5 9 10 4 6 6 11 11 7 8 6 3 3 8 8 5 14 10 9 12 14 16 18 20 22 25 27 27 29 30 29 33 31 25
5 7 9 7 9 2 6 6 8 10 14 24 20 11 6 6 7 1 8 6 5 3 2 13 5 14 16 14 13 12 12 14 16 18 19 19 20 20 23 25 21 21 25 21
7 6 2 4 4 6 8 16 12 16 24 19 18 13 6 6 8 5 6 8 8 12 10 6 8 12 15 16 15 13 10 10 11 13 14 14 15 14 13 17 16 11 16 16
6 11 12 8 5 4 5 10 15 24 26 17 8 7 8 1 8 6 12 11 12 8 7 9 12 16 16 14 13 11 9 7 8 8 10 11 11 11 11 11 10 7 5 4
7 5 15 7 8 13 17 19 20 34 18 5 6 9 12 5 6 4 9 10 7 11 15 19 15 14 13 12 11 10 9 6 3 7 6 7 7 6 9 6 4 10 6 5
Wind_Direction_850mb
187 196 207 195 190 189 189 188 182 190 186 191 182 191 145 127 145 160 143 121 112 150 144 182 194 213 207 189 148 188 173 149 216 202 12 200 211 188 205 232 202 226 208 264
193 200 191 197 188 188 192 175 148 176 182 189 170 129 125 109 153 171 170 118 98 124 151 174 185 184 208 184 174 176 163 214 210 153 304 331 210 212 214 222 301 233 245 266
194 197 200 196 190 191 191 134 147 213 186 148 130 148 150 129 117 83 76 110 88 107 158 343 183 159 180 183 173 183 164 147 211 200 163 136 213 207 220 216 226 252 244 263
192 192 197 186 188 185 188 205 158 174 150 156 138 149 160 140 137 120 147 92 153 139 140 129 175 127 108 55 199 174 166 175 192 201 168 102 333 224 219 221 237 232 257 259
199 194 192 184 183 191 197 159 140 151 106 145 142 141 165 156 101 138 174 165 165 147 154 186 176 160 137 177 204 156 165 176 156 208 255 212 224 234 251 231 239 250 261 274
192 186 188 187 190 180 186 161 179 160 150 149 153 166 163 176 141 25 146 137 124 118 165 141 158 163 167 160 157 150 159 164 138 228 194 152 278 237 232 242 242 243 248 254
185 189 182 172 185 183 186 191 125 84 148 147 161 151 158 155 174 126 114 143 103 128 115 107 102 78 80 85 47 139 134 141 142 168 65 247 243 52 217 216 233 228 245 259
194 193 188 177 178 176 190 131 126 60 139 161 107 131 100 98 107 82 101 106 149 138 119 76 56 354 23 337 18 66 136 126 137 158 196 302 294 195 166 176 246 233 244 254
168 177 185 180 189 156 171 189 175 94 121 200 150 143 155 144 116 68 79 120 143 132 83 80 141 170 185 269 356 6 55 92 123 162 175 223 238 295 181 112 275 4 309 261
164 172 170 173 177 173 179 161 159 155 105 91 160 161 168 147 123 103 118 148 141 124 97 93 138 207 184 165 159 163 137 187 198 192 231 283 249 254 228 146 245 30 20 10
174 171 176 172 177 176 184 177 162 153 94 60 166 154 157 150 154 146 157 112 355 51 75 126 192 124 208 134 182 173 167 161 186 150 192 266 230 20 202 68 341 335 342 341
154 158 157 159 172 171 170 162 151 130 114 109 118 144 165 171 167 144 151 131 136 165 99 101 125 143 170 166 204 222 212 183 181 187 210 213 159 175 187 349 332 331 327 326
147 152 164 183 186 190 199 175 152 150 117 90 108 101 129 151 161 165 147 156 144 142 128 152 159 156 133 163 215 179 237 182 202 118 211 224 218 218 211 345 341 333 327 323
155 163 164 173 175 188 199 177 153 131 110 103 56 115 110 118 147 163 175 164 153 156 155 107 141 142 176 200 186 193 196 146 177 266 284 264 248 233 296 321 323 318 321 328
154 133 162 162 163 155 165 160 152 149 126 126 132 79 74 97 157 170 166 163 175 163 121 106 180 128 131 171 343 231 192 184 187 222 100 199 137 259 311 317 321 317 319 318
102 121 133 142 146 142 144 92 159 174 120 106 84 68 76 100 113 127 142 147 130 115 108 138 177 188 163 176 228 224 193 201 203 177 248 264 279 299 294 315 321 321 323 321
92 105 120 126 134 91 70 113 135 150 150 116 100 75 61 89 99 87 85 95 99 105 121 112 140 161 196 240 232 180 198 222 242 258 282 287 276 270 301 309 310 314 318 314
101 104 109 105 108 98 96 113 132 149 177 118 113 111 72 38 65 81 81 84 96 67 85 116 167 160 73 252 111 183 203 236 255 258 266 269 282 292 297 299 305 306 311 313
102 104 110 107 98 78 81 89 84 75 105 111 75 97 133 39 65 75 70 87 97 101 127 214 179 219 228 218 149 187 201 206 220 261 281 284 281 289 296 300 303 304 307 310
53 71 89 79 69 89 57 45 46 43 37 54 81 75 70 34 37 57 70 33 111 136 256 138 176 250 223 201 196 195 233 268 283 293 291 284 283 289 292 296 301 304 305 306
352 37 62 90 67 41 49 52 42 348 42 30 68 58 102 53 88 145 41 168 357 66 270 145 274 273 217 215 239 254 266 274 279 282 286 290 293 299 301 299 300 301 300 302
103 103 96 60 37 58 76 1 336 43 164 29 96 83 85 73 61 97 8 114 53 244 325 48 276 253 172 177 248 282 285 285 286 291 294 291 290 294 296 299 302 300 299 301
81 75 66 15 344 41 90 139 326 52 213 155 148 79 79 74 51 61 60 75 207 109 85 230 236 226 205 237 273 282 290 297 300 300 298 299 301 299 296 298 300 301 300 302
55 40 25 79 333 0 173 173 162 135 139 128 112 91 97 73 63 185 89 242 69 49 309 235 237 219 217 246 256 262 272 284 293 301 304 303 303 305 304 305 306 307 305 307
71 46 72 36 130 73 97 110 111 118 143 129 105 70 57 0 82 37 81 28 255 208 230 233 202 221 242 243 249 255 264 279 292 304 310 315 320 325 331 319 314 318 316 312
74 81 95 131 69 321 179 160 139 142 143 120 89 110 66 322 125 85 216 136 230 253 225 225 249 234 225 233 245 258 268 282 302 317 328 331 338 340 4 359 337 14 350 326
78 41 113 118 87 150 161 166 173 156 155 153 126 100 195 98 56 271 192 209 222 222 269 283 272 256 245 242 243 253 263 274 296 320 340 347 2 0 34 30 55 77 89 109